Year,Month,Day,Hour,Minute,Value (Times are PST for temperature in C)
2017,02,20,00,00,2.70
2017,02,20,00,01,2.70
2017,02,20,00,02,2.70
2017,02,20,00,03,2.70
2017,02,20,00,04,2.70
2017,02,20,00,05,2.70
2017,02,20,00,06,2.60
2017,02,20,00,07,2.60
2017,02,20,00,08,2.60
2017,02,20,00,09,2.60
2017,02,20,00,10,2.60
2017,02,20,00,11,2.60
2017,02,20,00,12,2.60
2017,02,20,00,13,2.60
2017,02,20,00,14,2.60
2017,02,20,00,15,2.60
2017,02,20,00,16,2.60
2017,02,20,00,17,2.60
2017,02,20,00,18,2.60
2017,02,20,00,19,2.60
2017,02,20,00,20,2.50
2017,02,20,00,21,2.50
2017,02,20,00,22,2.50
2017,02,20,00,23,2.50
2017,02,20,00,24,2.50
2017,02,20,00,25,2.50
2017,02,20,00,26,2.50
2017,02,20,00,27,2.50
2017,02,20,00,28,2.50
2017,02,20,00,29,2.50
2017,02,20,00,30,2.50
2017,02,20,00,31,2.50
2017,02,20,00,32,2.50
2017,02,20,00,33,2.50
2017,02,20,00,34,2.50
2017,02,20,00,35,2.50
2017,02,20,00,36,2.50
2017,02,20,00,37,2.50
2017,02,20,00,38,2.50
2017,02,20,00,39,2.50
2017,02,20,00,40,2.50
2017,02,20,00,41,2.50
2017,02,20,00,42,2.50
2017,02,20,00,43,2.50
2017,02,20,00,44,2.50
2017,02,20,00,45,2.50
2017,02,20,00,46,2.50
2017,02,20,00,47,2.50
2017,02,20,00,48,2.50
2017,02,20,00,49,2.50
2017,02,20,00,50,2.50
2017,02,20,00,51,2.50
2017,02,20,00,52,2.50
2017,02,20,00,53,2.50
2017,02,20,00,54,2.50
2017,02,20,00,55,2.50
2017,02,20,00,56,2.50
2017,02,20,00,57,2.50
2017,02,20,00,58,2.50
2017,02,20,00,59,2.50
2017,02,20,01,00,2.50
2017,02,20,01,01,2.50
2017,02,20,01,02,2.50
2017,02,20,01,03,2.50
2017,02,20,01,04,2.50
2017,02,20,01,05,2.60
2017,02,20,01,06,2.60
2017,02,20,01,07,2.50
2017,02,20,01,08,2.50
2017,02,20,01,09,2.50
2017,02,20,01,10,2.50
2017,02,20,01,11,2.50
2017,02,20,01,12,2.50
2017,02,20,01,13,2.50
2017,02,20,01,14,2.50
2017,02,20,01,15,2.50
2017,02,20,01,16,2.50
2017,02,20,01,17,2.40
2017,02,20,01,18,2.40
2017,02,20,01,19,2.40
2017,02,20,01,20,2.40
2017,02,20,01,21,2.40
2017,02,20,01,22,2.40
2017,02,20,01,23,2.40
2017,02,20,01,24,2.40
2017,02,20,01,25,2.40
2017,02,20,01,26,2.40
2017,02,20,01,27,2.30
2017,02,20,01,28,2.30
2017,02,20,01,29,2.30
2017,02,20,01,30,2.30
2017,02,20,01,31,2.30
2017,02,20,01,32,2.30
2017,02,20,01,33,2.30
2017,02,20,01,34,2.30
2017,02,20,01,35,2.30
2017,02,20,01,36,2.30
2017,02,20,01,37,2.30
2017,02,20,01,38,2.30
2017,02,20,01,39,2.30
2017,02,20,01,40,2.30
2017,02,20,01,41,2.30
2017,02,20,01,42,2.30
2017,02,20,01,43,2.30
2017,02,20,01,44,2.30
2017,02,20,01,45,2.30
2017,02,20,01,46,2.30
2017,02,20,01,47,2.30
2017,02,20,01,48,2.30
2017,02,20,01,49,2.30
2017,02,20,01,50,2.40
2017,02,20,01,51,2.40
2017,02,20,01,52,2.40
2017,02,20,01,53,2.40
2017,02,20,01,54,2.40
2017,02,20,01,55,2.40
2017,02,20,01,56,2.40
2017,02,20,01,57,2.40
2017,02,20,01,58,2.40
2017,02,20,01,59,2.40
2017,02,20,02,00,2.40
2017,02,20,02,01,2.40
2017,02,20,02,02,2.40
2017,02,20,02,03,2.40
2017,02,20,02,04,2.40
2017,02,20,02,05,2.40
2017,02,20,02,06,2.40
2017,02,20,02,07,2.40
2017,02,20,02,08,2.40
2017,02,20,02,09,2.40
2017,02,20,02,10,2.40
2017,02,20,02,11,2.40
2017,02,20,02,12,2.40
2017,02,20,02,13,2.40
2017,02,20,02,14,2.40
2017,02,20,02,15,2.40
2017,02,20,02,16,2.40
2017,02,20,02,17,2.40
2017,02,20,02,18,2.40
2017,02,20,02,19,2.40
2017,02,20,02,20,2.40
2017,02,20,02,21,2.40
2017,02,20,02,22,2.40
2017,02,20,02,23,2.40
2017,02,20,02,24,2.40
2017,02,20,02,25,2.40
2017,02,20,02,26,2.40
2017,02,20,02,27,2.40
2017,02,20,02,28,2.40
2017,02,20,02,29,2.40
2017,02,20,02,30,2.40
2017,02,20,02,31,2.40
2017,02,20,02,32,2.40
2017,02,20,02,33,2.40
2017,02,20,02,34,2.40
2017,02,20,02,35,2.40
2017,02,20,02,36,2.40
2017,02,20,02,37,2.40
2017,02,20,02,38,2.40
2017,02,20,02,39,2.40
2017,02,20,02,40,2.40
2017,02,20,02,41,2.40
2017,02,20,02,42,2.40
2017,02,20,02,43,2.40
2017,02,20,02,44,2.40
2017,02,20,02,45,2.40
2017,02,20,02,46,2.40
2017,02,20,02,47,2.40
2017,02,20,02,48,2.40
2017,02,20,02,49,2.40
2017,02,20,02,50,2.40
2017,02,20,02,51,2.40
2017,02,20,02,52,2.40
2017,02,20,02,53,2.40
2017,02,20,02,54,2.40
2017,02,20,02,55,2.40
2017,02,20,02,56,2.40
2017,02,20,02,57,2.40
2017,02,20,02,58,2.40
2017,02,20,02,59,2.40
2017,02,20,03,00,2.40
2017,02,20,03,01,2.40
2017,02,20,03,02,2.40
2017,02,20,03,03,2.40
2017,02,20,03,04,2.40
2017,02,20,03,05,2.40
2017,02,20,03,06,2.40
2017,02,20,03,07,2.40
2017,02,20,03,08,2.40
2017,02,20,03,09,2.40
2017,02,20,03,10,2.40
2017,02,20,03,11,2.40
2017,02,20,03,12,2.40
2017,02,20,03,13,2.40
2017,02,20,03,14,2.40
2017,02,20,03,15,2.40
2017,02,20,03,16,2.40
2017,02,20,03,17,2.40
2017,02,20,03,18,2.40
2017,02,20,03,19,2.40
2017,02,20,03,20,2.40
2017,02,20,03,21,2.40
2017,02,20,03,22,2.40
2017,02,20,03,23,2.40
2017,02,20,03,24,2.40
2017,02,20,03,25,2.40
2017,02,20,03,26,2.40
2017,02,20,03,27,2.40
2017,02,20,03,28,2.40
2017,02,20,03,29,2.40
2017,02,20,03,30,2.40
2017,02,20,03,31,2.40
2017,02,20,03,32,2.40
2017,02,20,03,33,2.40
2017,02,20,03,34,2.40
2017,02,20,03,35,2.40
2017,02,20,03,36,2.40
2017,02,20,03,37,2.40
2017,02,20,03,38,2.40
2017,02,20,03,39,2.40
2017,02,20,03,40,2.40
2017,02,20,03,41,2.40
2017,02,20,03,42,2.40
2017,02,20,03,43,2.40
2017,02,20,03,44,2.40
2017,02,20,03,45,2.40
2017,02,20,03,46,2.40
2017,02,20,03,47,2.40
2017,02,20,03,48,2.40
2017,02,20,03,49,2.40
2017,02,20,03,50,2.40
2017,02,20,03,51,2.40
2017,02,20,03,52,2.40
2017,02,20,03,53,2.40
2017,02,20,03,54,2.40
2017,02,20,03,55,2.40
2017,02,20,03,56,2.40
2017,02,20,03,57,2.30
2017,02,20,03,58,2.40
2017,02,20,03,59,2.40
2017,02,20,04,00,2.40
2017,02,20,04,01,2.30
2017,02,20,04,02,2.40
2017,02,20,04,03,2.40
2017,02,20,04,04,2.40
2017,02,20,04,05,2.40
2017,02,20,04,06,2.40
2017,02,20,04,07,2.30
2017,02,20,04,08,2.30
2017,02,20,04,09,2.30
2017,02,20,04,10,2.30
2017,02,20,04,11,2.30
2017,02,20,04,12,2.30
2017,02,20,04,13,2.30
2017,02,20,04,14,2.30
2017,02,20,04,15,2.30
2017,02,20,04,16,2.20
2017,02,20,04,17,2.20
2017,02,20,04,18,2.20
2017,02,20,04,19,2.20
2017,02,20,04,20,2.20
2017,02,20,04,21,2.20
2017,02,20,04,22,2.20
2017,02,20,04,23,2.20
2017,02,20,04,24,2.20
2017,02,20,04,25,2.10
2017,02,20,04,26,2.10
2017,02,20,04,27,2.10
2017,02,20,04,28,2.10
2017,02,20,04,29,2.10
2017,02,20,04,30,2.10
2017,02,20,04,31,2.10
2017,02,20,04,32,2.10
2017,02,20,04,33,2.10
2017,02,20,04,34,2.10
2017,02,20,04,35,2.10
2017,02,20,04,36,2.10
2017,02,20,04,37,2.10
2017,02,20,04,38,2.10
2017,02,20,04,39,2.10
2017,02,20,04,40,2.10
2017,02,20,04,41,2.10
2017,02,20,04,42,2.10
2017,02,20,04,43,2.10
2017,02,20,04,44,2.10
2017,02,20,04,45,2.20
2017,02,20,04,46,2.20
2017,02,20,04,47,2.20
2017,02,20,04,48,2.20
2017,02,20,04,49,2.20
2017,02,20,04,50,2.20
2017,02,20,04,51,2.20
2017,02,20,04,52,2.10
2017,02,20,04,53,2.10
2017,02,20,04,54,2.10
2017,02,20,04,55,2.10
2017,02,20,04,56,2.10
2017,02,20,04,57,2.10
2017,02,20,04,58,2.10
2017,02,20,04,59,2.10
2017,02,20,05,00,2.10
2017,02,20,05,01,2.10
2017,02,20,05,02,2.10
2017,02,20,05,03,2.10
2017,02,20,05,04,2.10
2017,02,20,05,05,2.10
2017,02,20,05,06,2.10
2017,02,20,05,07,2.10
2017,02,20,05,08,2.10
2017,02,20,05,09,2.10
2017,02,20,05,10,2.10
2017,02,20,05,11,2.10
2017,02,20,05,12,2.10
2017,02,20,05,13,2.20
2017,02,20,05,14,2.20
2017,02,20,05,15,2.20
2017,02,20,05,16,2.20
2017,02,20,05,17,2.20
2017,02,20,05,18,2.20
2017,02,20,05,19,2.20
2017,02,20,05,20,2.20
2017,02,20,05,21,2.20
2017,02,20,05,22,2.20
2017,02,20,05,23,2.20
2017,02,20,05,24,2.30
2017,02,20,05,25,2.30
2017,02,20,05,26,2.30
2017,02,20,05,27,2.30
2017,02,20,05,28,2.30
2017,02,20,05,29,2.30
2017,02,20,05,30,2.30
2017,02,20,05,31,2.30
2017,02,20,05,32,2.30
2017,02,20,05,33,2.30
2017,02,20,05,34,2.30
2017,02,20,05,35,2.30
2017,02,20,05,36,2.30
2017,02,20,05,37,2.30
2017,02,20,05,38,2.40
2017,02,20,05,39,2.40
2017,02,20,05,40,2.40
2017,02,20,05,41,2.40
2017,02,20,05,42,2.40
2017,02,20,05,43,2.40
2017,02,20,05,44,2.40
2017,02,20,05,45,2.40
2017,02,20,05,46,2.40
2017,02,20,05,47,2.40
2017,02,20,05,48,2.40
2017,02,20,05,49,2.40
2017,02,20,05,50,2.40
2017,02,20,05,51,2.40
2017,02,20,05,52,2.40
2017,02,20,05,53,2.40
2017,02,20,05,54,2.40
2017,02,20,05,55,2.40
2017,02,20,05,56,2.50
2017,02,20,05,57,2.40
2017,02,20,05,58,2.50
2017,02,20,05,59,2.50
2017,02,20,06,00,2.50
2017,02,20,06,01,2.50
2017,02,20,06,02,2.50
2017,02,20,06,03,2.50
2017,02,20,06,04,2.50
2017,02,20,06,05,2.50
2017,02,20,06,06,2.50
2017,02,20,06,07,2.50
2017,02,20,06,08,2.50
2017,02,20,06,09,2.50
2017,02,20,06,10,2.40
2017,02,20,06,11,2.50
2017,02,20,06,12,2.40
2017,02,20,06,13,2.40
2017,02,20,06,14,2.40
2017,02,20,06,15,2.40
2017,02,20,06,16,2.40
2017,02,20,06,17,2.40
2017,02,20,06,18,2.40
2017,02,20,06,19,2.40
2017,02,20,06,20,2.40
2017,02,20,06,21,2.40
2017,02,20,06,22,2.40
2017,02,20,06,23,2.40
2017,02,20,06,24,2.30
2017,02,20,06,25,2.30
2017,02,20,06,26,2.30
2017,02,20,06,27,2.30
2017,02,20,06,28,2.30
2017,02,20,06,29,2.30
2017,02,20,06,30,2.30
2017,02,20,06,31,2.30
2017,02,20,06,32,2.30
2017,02,20,06,33,2.30
2017,02,20,06,34,2.30
2017,02,20,06,35,2.30
2017,02,20,06,36,2.30
2017,02,20,06,37,2.30
2017,02,20,06,38,2.30
2017,02,20,06,39,2.30
2017,02,20,06,40,2.30
2017,02,20,06,41,2.30
2017,02,20,06,42,2.30
2017,02,20,06,43,2.30
2017,02,20,06,44,2.30
2017,02,20,06,45,2.30
2017,02,20,06,46,2.30
2017,02,20,06,47,2.30
2017,02,20,06,48,2.30
2017,02,20,06,49,2.30
2017,02,20,06,50,2.30
2017,02,20,06,51,2.30
2017,02,20,06,52,2.30
2017,02,20,06,53,2.30
2017,02,20,06,54,2.30
2017,02,20,06,55,2.30
2017,02,20,06,56,2.30
2017,02,20,06,57,2.30
2017,02,20,06,58,2.30
2017,02,20,06,59,2.30
2017,02,20,07,00,2.30
2017,02,20,07,01,2.30
2017,02,20,07,02,2.30
2017,02,20,07,03,2.30
2017,02,20,07,04,2.30
2017,02,20,07,05,2.30
2017,02,20,07,06,2.30
2017,02,20,07,07,2.30
2017,02,20,07,08,2.30
2017,02,20,07,09,2.30
2017,02,20,07,10,2.30
2017,02,20,07,11,2.30
2017,02,20,07,12,2.30
2017,02,20,07,13,2.30
2017,02,20,07,14,2.30
2017,02,20,07,15,2.20
2017,02,20,07,16,2.20
2017,02,20,07,17,2.20
2017,02,20,07,18,2.20
2017,02,20,07,19,2.20
2017,02,20,07,20,2.20
2017,02,20,07,21,2.20
2017,02,20,07,22,2.20
2017,02,20,07,23,2.20
2017,02,20,07,24,2.20
2017,02,20,07,25,2.20
2017,02,20,07,26,2.20
2017,02,20,07,27,2.20
2017,02,20,07,28,2.20
2017,02,20,07,29,2.20
2017,02,20,07,30,2.20
2017,02,20,07,31,2.20
2017,02,20,07,32,2.20
2017,02,20,07,33,2.20
2017,02,20,07,34,2.20
2017,02,20,07,35,2.20
2017,02,20,07,36,2.20
2017,02,20,07,37,2.20
2017,02,20,07,38,2.20
2017,02,20,07,39,2.20
2017,02,20,07,40,2.20
2017,02,20,07,41,2.20
2017,02,20,07,42,2.20
2017,02,20,07,43,2.20
2017,02,20,07,44,2.30
2017,02,20,07,45,2.30
2017,02,20,07,46,2.30
2017,02,20,07,47,2.30
2017,02,20,07,48,2.30
2017,02,20,07,49,2.30
2017,02,20,07,50,2.30
2017,02,20,07,51,2.30
2017,02,20,07,52,2.30
2017,02,20,07,53,2.40
2017,02,20,07,54,2.40
2017,02,20,07,55,2.40
2017,02,20,07,56,2.40
2017,02,20,07,57,2.40
2017,02,20,07,58,2.40
2017,02,20,07,59,2.40
2017,02,20,08,00,2.40
2017,02,20,08,01,2.40
2017,02,20,08,02,2.40
2017,02,20,08,03,2.40
2017,02,20,08,04,2.40
2017,02,20,08,05,2.40
2017,02,20,08,06,2.40
2017,02,20,08,07,2.40
2017,02,20,08,08,2.50
2017,02,20,08,09,2.50
2017,02,20,08,10,2.50
2017,02,20,08,11,2.50
2017,02,20,08,12,2.50
2017,02,20,08,13,2.50
2017,02,20,08,14,2.50
2017,02,20,08,15,2.50
2017,02,20,08,16,2.50
2017,02,20,08,17,2.50
2017,02,20,08,18,2.50
2017,02,20,08,19,2.60
2017,02,20,08,20,2.60
2017,02,20,08,21,2.60
2017,02,20,08,22,2.60
2017,02,20,08,23,2.60
2017,02,20,08,24,2.60
2017,02,20,08,25,2.60
2017,02,20,08,26,2.60
2017,02,20,08,27,2.70
2017,02,20,08,28,2.70
2017,02,20,08,29,2.70
2017,02,20,08,30,2.70
2017,02,20,08,31,2.70
2017,02,20,08,32,2.70
2017,02,20,08,33,2.70
2017,02,20,08,34,2.70
2017,02,20,08,35,2.70
2017,02,20,08,36,2.80
2017,02,20,08,37,2.80
2017,02,20,08,38,2.80
2017,02,20,08,39,2.80
2017,02,20,08,40,2.80
2017,02,20,08,41,2.80
2017,02,20,08,42,2.80
2017,02,20,08,43,2.80
2017,02,20,08,44,2.90
2017,02,20,08,45,2.90
2017,02,20,08,46,2.90
2017,02,20,08,47,2.90
2017,02,20,08,48,2.90
2017,02,20,08,49,3.00
2017,02,20,08,50,3.00
2017,02,20,08,51,3.00
2017,02,20,08,52,3.10
2017,02,20,08,53,3.10
2017,02,20,08,54,3.10
2017,02,20,08,55,3.10
2017,02,20,08,56,3.10
2017,02,20,08,57,3.20
2017,02,20,08,58,3.10
2017,02,20,08,59,3.20
2017,02,20,09,00,3.20
2017,02,20,09,01,3.20
2017,02,20,09,02,3.20
2017,02,20,09,03,3.20
2017,02,20,09,04,3.20
2017,02,20,09,05,3.20
2017,02,20,09,06,3.20
2017,02,20,09,07,3.20
2017,02,20,09,08,3.20
2017,02,20,09,09,3.30
2017,02,20,09,10,3.30
2017,02,20,09,11,3.30
2017,02,20,09,12,3.30
2017,02,20,09,13,3.30
2017,02,20,09,14,3.30
2017,02,20,09,15,3.30
2017,02,20,09,16,3.40
2017,02,20,09,17,3.40
2017,02,20,09,18,3.40
2017,02,20,09,19,3.40
2017,02,20,09,20,3.40
2017,02,20,09,21,3.40
2017,02,20,09,22,3.40
2017,02,20,09,23,3.50
2017,02,20,09,24,3.50
2017,02,20,09,25,3.60
2017,02,20,09,26,3.60
2017,02,20,09,27,3.60
2017,02,20,09,28,3.60
2017,02,20,09,29,3.60
2017,02,20,09,30,3.60
2017,02,20,09,31,3.70
2017,02,20,09,32,3.70
2017,02,20,09,33,3.70
2017,02,20,09,34,3.80
2017,02,20,09,35,3.80
2017,02,20,09,36,3.80
2017,02,20,09,37,3.90
2017,02,20,09,38,3.90
2017,02,20,09,39,3.90
2017,02,20,09,40,3.90
2017,02,20,09,41,3.90
2017,02,20,09,42,3.90
2017,02,20,09,43,3.90
2017,02,20,09,44,3.90
2017,02,20,09,45,3.90
2017,02,20,09,46,3.90
2017,02,20,09,47,3.90
2017,02,20,09,48,3.90
2017,02,20,09,49,3.90
2017,02,20,09,50,3.90
2017,02,20,09,51,3.90
2017,02,20,16,39,8.10
2017,02,20,16,40,8.10
2017,02,20,16,41,8.10
2017,02,20,16,42,8.10
2017,02,20,16,43,8.00
2017,02,20,16,44,8.00
2017,02,20,16,45,8.00
2017,02,20,16,46,8.00
2017,02,20,16,47,8.00
2017,02,20,16,48,8.00
2017,02,20,16,49,8.00
2017,02,20,16,50,8.00
2017,02,20,16,51,8.00
2017,02,20,16,52,7.90
2017,02,20,16,53,7.90
2017,02,20,16,54,7.90
2017,02,20,16,55,7.90
2017,02,20,16,56,7.90
2017,02,20,16,57,7.90
2017,02,20,16,58,7.90
2017,02,20,16,59,7.90
2017,02,20,17,00,7.90
2017,02,20,17,01,7.90
2017,02,20,17,02,7.90
2017,02,20,17,03,7.90
2017,02,20,17,04,7.90
2017,02,20,17,05,7.90
2017,02,20,17,06,7.90
2017,02,20,17,07,7.90
2017,02,20,17,08,8.00
2017,02,20,17,09,8.00
2017,02,20,17,10,8.00
2017,02,20,17,11,8.00
2017,02,20,17,12,8.00
2017,02,20,17,13,8.00
2017,02,20,17,14,8.00
2017,02,20,17,15,8.00
2017,02,20,17,16,8.00
2017,02,20,17,17,8.00
2017,02,20,17,18,8.00
2017,02,20,17,19,8.00
2017,02,20,17,20,8.00
2017,02,20,17,21,8.00
2017,02,20,17,22,8.00
2017,02,20,17,23,8.00
2017,02,20,17,24,8.00
2017,02,20,17,25,7.90
2017,02,20,17,26,7.90
2017,02,20,17,27,7.90
2017,02,20,17,28,7.80
2017,02,20,17,29,7.80
2017,02,20,17,30,7.70
2017,02,20,17,31,7.70
2017,02,20,17,32,7.60
2017,02,20,17,33,7.50
2017,02,20,17,34,7.50
2017,02,20,17,35,7.40
2017,02,20,17,36,7.30
2017,02,20,17,37,7.20
2017,02,20,17,38,7.20
2017,02,20,17,39,7.10
2017,02,20,17,40,7.00
2017,02,20,17,41,7.00
2017,02,20,17,42,6.90
2017,02,20,17,43,6.90
2017,02,20,17,44,6.80
2017,02,20,17,45,6.80
2017,02,20,17,46,6.80
2017,02,20,17,47,6.70
2017,02,20,17,48,6.70
2017,02,20,17,49,6.70
2017,02,20,17,50,6.60
2017,02,20,17,51,6.60
2017,02,20,17,52,6.50
2017,02,20,17,53,6.40
2017,02,20,17,54,6.40
2017,02,20,17,55,6.30
2017,02,20,17,56,6.30
2017,02,20,17,57,6.30
2017,02,20,17,58,6.20
2017,02,20,17,59,6.20
2017,02,20,18,00,6.20
2017,02,20,18,01,6.10
2017,02,20,18,02,6.10
2017,02,20,18,03,6.10
2017,02,20,18,04,6.00
2017,02,20,18,05,6.00
2017,02,20,18,06,6.00
2017,02,20,18,07,5.90
2017,02,20,18,08,5.90
2017,02,20,18,09,5.80
2017,02,20,18,10,5.80
2017,02,20,18,11,5.70
2017,02,20,18,12,5.70
2017,02,20,18,13,5.70
2017,02,20,18,14,5.60
2017,02,20,18,15,5.60
2017,02,20,18,16,5.60
2017,02,20,18,17,5.50
2017,02,20,18,18,5.40
2017,02,20,18,19,5.40
2017,02,20,18,20,5.30
2017,02,20,18,21,5.30
2017,02,20,18,22,5.30
2017,02,20,18,23,5.20
2017,02,20,18,24,5.10
2017,02,20,18,25,5.10
2017,02,20,18,26,5.00
2017,02,20,18,27,4.90
2017,02,20,18,28,4.90
2017,02,20,18,29,4.80
2017,02,20,18,30,4.80
2017,02,20,18,31,4.70
2017,02,20,18,32,4.70
2017,02,20,18,33,4.60
2017,02,20,18,34,4.60
2017,02,20,18,35,4.60
2017,02,20,18,36,4.50
2017,02,20,18,37,4.50
2017,02,20,18,38,4.40
2017,02,20,18,39,4.40
2017,02,20,18,40,4.40
2017,02,20,18,41,4.30
2017,02,20,18,42,4.30
2017,02,20,18,43,4.30
2017,02,20,18,44,4.30
2017,02,20,18,45,4.30
2017,02,20,18,46,4.30
2017,02,20,18,47,4.30
2017,02,20,18,48,4.20
2017,02,20,18,49,4.20
2017,02,20,18,50,4.20
2017,02,20,18,51,4.10
2017,02,20,18,52,4.10
2017,02,20,18,53,4.10
2017,02,20,18,54,4.10
2017,02,20,18,55,4.00
2017,02,20,18,56,4.00
2017,02,20,18,57,3.90
2017,02,20,18,58,3.90
2017,02,20,18,59,3.80
2017,02,20,19,00,3.80
2017,02,20,19,01,3.80
2017,02,20,19,02,3.80
2017,02,20,19,03,3.80
2017,02,20,19,04,3.70
2017,02,20,19,05,3.70
2017,02,20,19,06,3.70
2017,02,20,19,07,3.60
2017,02,20,19,08,3.60
2017,02,20,19,09,3.50
2017,02,20,19,10,3.50
2017,02,20,19,11,3.40
2017,02,20,19,12,3.40
2017,02,20,19,13,3.30
2017,02,20,19,14,3.30
2017,02,20,19,15,3.30
2017,02,20,19,16,3.20
2017,02,20,19,17,3.20
2017,02,20,19,18,3.20
2017,02,20,19,19,3.20
2017,02,20,19,20,3.10
2017,02,20,19,21,3.10
2017,02,20,19,22,3.10
2017,02,20,19,23,3.10
2017,02,20,19,24,3.10
2017,02,20,19,25,3.10
2017,02,20,19,26,3.10
2017,02,20,19,27,3.00
2017,02,20,19,28,3.00
2017,02,20,19,29,3.00
2017,02,20,19,30,3.00
2017,02,20,19,31,3.00
2017,02,20,19,32,2.90
2017,02,20,19,33,2.90
2017,02,20,19,34,2.90
2017,02,20,19,35,2.80
2017,02,20,19,36,2.80
2017,02,20,19,37,2.80
2017,02,20,19,38,2.70
2017,02,20,19,39,2.70
2017,02,20,19,40,2.70
2017,02,20,19,41,2.70
2017,02,20,19,42,2.60
2017,02,20,19,43,2.60
2017,02,20,19,44,2.60
2017,02,20,19,45,2.60
2017,02,20,19,46,2.60
2017,02,20,19,47,2.50
2017,02,20,19,48,2.50
2017,02,20,19,49,2.50
2017,02,20,19,50,2.50
2017,02,20,19,51,2.50
2017,02,20,19,52,2.40
2017,02,20,19,53,2.40
2017,02,20,19,54,2.40
2017,02,20,19,55,2.40
2017,02,20,19,56,2.40
2017,02,20,19,57,2.40
2017,02,20,19,58,2.40
2017,02,20,19,59,2.30
2017,02,20,20,00,2.30
2017,02,20,20,01,2.30
2017,02,20,20,02,2.30
2017,02,20,20,03,2.20
2017,02,20,20,04,2.20
2017,02,20,20,05,2.20
2017,02,20,20,06,2.20
2017,02,20,20,07,2.20
2017,02,20,20,08,2.20
2017,02,20,20,09,2.20
2017,02,20,20,10,2.20
2017,02,20,20,11,2.20
2017,02,20,20,12,2.20
2017,02,20,20,13,2.20
2017,02,20,20,14,2.30
2017,02,20,20,15,2.30
2017,02,20,20,16,2.30
2017,02,20,20,17,2.30
2017,02,20,20,18,2.40
2017,02,20,20,19,2.40
2017,02,20,20,20,2.40
2017,02,20,20,21,2.50
2017,02,20,20,22,2.50
2017,02,20,20,23,2.50
2017,02,20,20,24,2.50
2017,02,20,20,25,2.60
2017,02,20,20,26,2.60
2017,02,20,20,27,2.60
2017,02,20,20,28,2.60
2017,02,20,20,29,2.60
2017,02,20,20,30,2.70
2017,02,20,20,31,2.70
2017,02,20,20,32,2.70
2017,02,20,20,33,2.70
2017,02,20,20,34,2.70
2017,02,20,20,35,2.70
2017,02,20,20,36,2.70
2017,02,20,20,37,2.80
2017,02,20,20,38,2.80
2017,02,20,20,39,2.80
2017,02,20,20,40,2.80
2017,02,20,20,41,2.70
2017,02,20,20,42,2.70
2017,02,20,20,43,2.70
2017,02,20,20,44,2.60
2017,02,20,20,45,2.60
2017,02,20,20,46,2.60
2017,02,20,20,47,2.50
2017,02,20,20,48,2.50
2017,02,20,20,49,2.50
2017,02,20,20,50,2.50
2017,02,20,20,51,2.50
2017,02,20,20,52,2.60
2017,02,20,20,53,2.60
2017,02,20,20,54,2.60
2017,02,20,20,55,2.60
2017,02,20,20,56,2.60
2017,02,20,20,57,2.60
2017,02,20,20,58,2.60
2017,02,20,20,59,2.60
2017,02,20,21,00,2.70
2017,02,20,21,01,2.70
2017,02,20,21,02,2.70
2017,02,20,21,03,2.70
2017,02,20,21,04,2.70
2017,02,20,21,05,2.80
2017,02,20,21,06,2.80
2017,02,20,21,07,2.80
2017,02,20,21,08,2.80
2017,02,20,21,09,2.80
2017,02,20,21,10,2.80
2017,02,20,21,11,2.80
2017,02,20,21,12,2.80
2017,02,20,21,13,2.80
2017,02,20,21,14,2.90
2017,02,20,21,15,2.90
2017,02,20,21,16,2.90
2017,02,20,21,17,2.90
2017,02,20,21,18,2.90
2017,02,20,21,19,2.90
2017,02,20,21,20,2.90
2017,02,20,21,21,2.90
2017,02,20,21,22,2.90
2017,02,20,21,23,2.90
2017,02,20,21,24,2.90
2017,02,20,21,25,2.90
2017,02,20,21,26,2.90
2017,02,20,21,27,2.90
2017,02,20,21,28,2.90
2017,02,20,21,29,2.90
2017,02,20,21,30,2.90
2017,02,20,21,31,2.90
2017,02,20,21,32,2.90
2017,02,20,21,33,2.90
2017,02,20,21,34,2.90
2017,02,20,21,35,2.90
2017,02,20,21,36,2.90
2017,02,20,21,37,2.90
2017,02,20,21,38,2.90
2017,02,20,21,39,2.90
2017,02,20,21,40,2.90
2017,02,20,21,41,2.90
2017,02,20,21,42,2.90
2017,02,20,21,43,2.90
2017,02,20,21,44,2.90
2017,02,20,21,45,2.80
2017,02,20,21,46,2.90
2017,02,20,21,47,2.90
2017,02,20,21,48,2.90
2017,02,20,21,49,2.90
2017,02,20,21,50,2.90
2017,02,20,21,51,2.90
2017,02,20,21,52,2.90
2017,02,20,21,53,2.90
2017,02,20,21,54,2.90
2017,02,20,21,55,2.80
2017,02,20,21,56,2.90
2017,02,20,21,57,2.80
2017,02,20,21,58,2.80
2017,02,20,21,59,2.80
2017,02,20,22,00,2.80
2017,02,20,22,01,2.70
2017,02,20,22,02,2.70
2017,02,20,22,03,2.70
2017,02,20,22,04,2.70
2017,02,20,22,05,2.70
2017,02,20,22,06,2.70
2017,02,20,22,07,2.70
2017,02,20,22,08,2.70
2017,02,20,22,09,2.70
2017,02,20,22,10,2.60
2017,02,20,22,11,2.60
2017,02,20,22,12,2.60
2017,02,20,22,13,2.60
2017,02,20,22,14,2.60
2017,02,20,22,15,2.60
2017,02,20,22,16,2.60
2017,02,20,22,17,2.60
2017,02,20,22,18,2.60
2017,02,20,22,19,2.60
2017,02,20,22,20,2.60
2017,02,20,22,21,2.60
2017,02,20,22,22,2.60
2017,02,20,22,23,2.60
2017,02,20,22,24,2.60
2017,02,20,22,25,2.60
2017,02,20,22,26,2.60
2017,02,20,22,27,2.60
2017,02,20,22,28,2.60
2017,02,20,22,29,2.50
2017,02,20,22,30,2.50
2017,02,20,22,31,2.50
2017,02,20,22,32,2.50
2017,02,20,22,33,2.50
2017,02,20,22,34,2.50
2017,02,20,22,35,2.50
2017,02,20,22,36,2.40
2017,02,20,22,37,2.40
2017,02,20,22,38,2.40
2017,02,20,22,39,2.40
2017,02,20,22,40,2.40
2017,02,20,22,41,2.40
2017,02,20,22,42,2.40
2017,02,20,22,43,2.40
2017,02,20,22,44,2.40
2017,02,20,22,45,2.40
2017,02,20,22,46,2.40
2017,02,20,22,47,2.40
2017,02,20,22,48,2.40
2017,02,20,22,49,2.30
2017,02,20,22,50,2.30
2017,02,20,22,51,2.30
2017,02,20,22,52,2.30
2017,02,20,22,53,2.30
2017,02,20,22,54,2.20
2017,02,20,22,55,2.20
2017,02,20,22,56,2.20
2017,02,20,22,57,2.20
2017,02,20,22,58,2.20
2017,02,20,22,59,2.10
2017,02,20,23,00,2.10
2017,02,20,23,01,2.10
2017,02,20,23,02,2.10
2017,02,20,23,03,2.10
2017,02,20,23,04,2.10
2017,02,20,23,05,2.10
2017,02,20,23,06,2.10
2017,02,20,23,07,2.10
2017,02,20,23,08,2.00
2017,02,20,23,09,2.00
2017,02,20,23,10,2.00
2017,02,20,23,11,2.00
2017,02,20,23,12,2.00
2017,02,20,23,13,1.90
2017,02,20,23,14,1.90
2017,02,20,23,15,2.00
2017,02,20,23,16,2.00
2017,02,20,23,17,2.00
2017,02,20,23,18,2.00
2017,02,20,23,19,2.00
2017,02,20,23,20,2.00
2017,02,20,23,21,2.10
2017,02,20,23,22,2.10
2017,02,20,23,23,2.10
2017,02,20,23,24,2.10
2017,02,20,23,25,2.10
2017,02,20,23,26,2.10
2017,02,20,23,27,2.10
2017,02,20,23,28,2.10
2017,02,20,23,29,2.10
2017,02,20,23,30,2.00
2017,02,20,23,31,2.00
2017,02,20,23,32,2.00
2017,02,20,23,33,2.00
2017,02,20,23,34,1.90
2017,02,20,23,35,1.90
2017,02,20,23,36,1.90
2017,02,20,23,37,1.90
2017,02,20,23,38,1.80
2017,02,20,23,39,1.80
2017,02,20,23,40,1.80
2017,02,20,23,41,1.70
2017,02,20,23,42,1.70
2017,02,20,23,43,1.70
2017,02,20,23,44,1.70
2017,02,20,23,45,1.70
2017,02,20,23,46,1.70
2017,02,20,23,47,1.70
2017,02,20,23,48,1.70
2017,02,20,23,49,1.70
2017,02,20,23,50,1.70
2017,02,20,23,51,1.70
2017,02,20,23,52,1.70
2017,02,20,23,53,1.70
2017,02,20,23,54,1.80
2017,02,20,23,55,1.70
2017,02,20,23,56,1.80
2017,02,20,23,57,1.80
2017,02,20,23,58,1.80
2017,02,20,23,59,1.80
